Location: Ciserano
(45.5833°N, 9.6000°E)
Time: 04:36:25
(UTC+00:00)

deb Agena D - Visible Passes

Search period start: 17 October 2021 00:00
Search period end: 27 October 2021 00:00
Orbit: 953 x 958 km, 100.1° (Epoch: 16 October)

Date Brightness Start Highest point End Pass type
(mag) Time Alt. Az. Time Alt. Az. Time Alt. Az.
17 Oct ? 00:58:05 10° NNE 00:59:13 16° NNE 00:59:13 16° NNE visible
17 Oct ? 02:41:17 10° N 02:43:25 20° NNW 02:43:25 20° NNW visible
18 Oct ? 01:16:52 10° NNE 01:18:16 18° NNE 01:18:16 18° NNE visible
18 Oct ? 03:00:32 10° N 03:02:29 17° NNW 03:02:29 17° NNW visible
19 Oct ? 01:35:44 10° NNE 01:37:18 19° NNE 01:37:18 19° NNE visible
19 Oct ? 03:19:58 10° NNW 03:21:31 14° NNW 03:21:31 14° NNW visible
20 Oct ? 01:54:40 10° N 01:56:20 20° N 01:56:20 20° N visible
20 Oct ? 03:39:45 10° NNW 03:40:34 11° NNW 03:40:34 11° NNW visible
21 Oct ? 02:13:40 10° N 02:15:23 19° N 02:15:23 19° N visible
22 Oct ? 00:49:49 10° NNE 00:50:14 12° NNE 00:50:14 12° NNE visible
22 Oct ? 02:32:46 10° N 02:34:27 18° N 02:34:27 18° N visible
23 Oct ? 01:08:32 10° NNE 01:09:16 14° NNE 01:09:16 14° NNE visible
23 Oct ? 02:51:57 10° N 02:53:29 16° NNW 02:53:29 16° NNW visible
24 Oct ? 01:27:20 10° NNE 01:28:18 15° NNE 01:28:18 15° NNE visible
24 Oct ? 03:11:16 10° N 03:12:31 14° NNW 03:12:31 14° NNW visible
25 Oct ? 01:46:14 10° NNE 01:47:21 16° NNE 01:47:21 16° NNE visible
25 Oct ? 03:30:48 10° NNW 03:31:34 12° NNW 03:31:34 12° NNW visible
26 Oct ? 02:05:12 10° N 02:06:23 16° N 02:06:23 16° N visible
